Regional Weather Roundup
Issued by NWS Spokane, WA

Home | Current Version | Previous Version | Text Only | Print | Product List | Glossary On
Versions: 1 2 3 4 5 6 7 8 9 10 11 12 13 14 15 16 17 18 19 20 21 22 23 24 25 26 27 28 29 30 31 32 33 34 35 36 37 38 39 40 41 42 43 44 45 46 47 48 49 50
000
NZUS01 KOTX 101205
RWROTX

Eastern Washington/Northern Idaho Roundup
National Weather Service, Spokane WA
400 AM PST SAT DEC 10 2016

Note: "fair" indicated few or no clouds below 12,000 feet with no
significant weather and/or obstructions to visibility.

...Northeast Washington and Northern Idaho Panhandle...

CITY           SKY/WX    TMP DP  RH WIND       PRES   REMARKS
Spokane Intl   SNOW      19  16  88 N5        29.78S VSB 1/2 WCI  12
Spokane Downto SNOW      21  19  92 CALM      29.82F VSB 1/2
Coeur d Alene  LGT SNOW  18  16  92 NE16      29.78F VSB 3/4 WCI   3
Deer Park      LGT SNOW  20  15  81 N8        29.80F VSB 1   WCI  10
Sandpoint      LGT SNOW  18  14  86 NE15      29.83F VSB 3/4 WCI   3
Bonners Ferry  LGT SNOW  16  10  79 NE6       29.86F WCI   7

...Southeast Washington and southern Idaho Panhandle...

CITY           SKY/WX    TMP DP  RH WIND       PRES   REMARKS
Walla Walla    LGT SNOW  22  21  96 SW6       29.91R FOG     WCI  14
Pullman/Moscow LGT SNOW  23  20  88 W15       29.78R FOG     WCI  10
Lewiston       CLOUDY    26  23  88 NW6       29.80F WCI  19
Lowell           N/A     29  25  85 N3        29.85F
Grangeville    CLOUDY    32  30  93 NE10      29.72F WCI  24

...Columbia Basin...

CITY           SKY/WX    TMP DP  RH WIND       PRES   REMARKS
Ephrata        CLOUDY    22  14  71 N3        29.86F
Moses Lake     CLOUDY    22  19  89 NW6       29.88F WCI  14
Pasco          CLOUDY    25  24  96 W5        29.97F WCI  19
Richland       CLOUDY    27  25  93 CALM      29.96F
Hermiston      LGT SNOW  24  22  91 SW5       29.95R FOG     WCI  18
Pendleton      MIX PCPN  21  19  92 NW7       29.88R VSB 3/4 WCI  12

...East Slopes Cascades...

CITY           SKY/WX    TMP DP  RH WIND       PRES   REMARKS
The Dalles     LGT SNOW  26  24  92 CALM      29.98S FOG
Yakima         MOCLDY    16  13  88 NW6       29.92S WCI   7
Ellensburg     MOCLDY    16  13  88 S7        29.85F WCI   6
Wenatchee      PTCLDY    18  17  96 NW6       29.89F WCI  10
Omak           MOCLDY    16  12  84 W3        29.89F
Sunnyside      FLURRIES  21  19  92 CALM      29.94F

...Southern British Columbia...

CITY           SKY/WX    TMP DP  RH WIND       PRES   REMARKS

...Western Montana...

CITY           SKY/WX    TMP DP  RH WIND       PRES   REMARKS
Kalispell      LGT SNOW  10   7  87 CALM      29.85F FOG
Libby            N/A     12   9  85 CALM      29.86F VSB 3/4
Missoula       LGT SNOW  16  14  92 CALM      29.83F FOG

...Neighboring Cities...

CITY           SKY/WX    TMP DP  RH WIND       PRES   REMARKS
Seattle        MOCLDY    38  37  97 S14       29.83R
Portland       LGT RAIN  32  30  92 E6        29.93S WCI  26
Boise          CLOUDY    32  31  96 E3        29.87F FOG
Great Falls    CLOUDY     0  -4  83 W6        29.83F WCI -12



USA.gov is the U.S. government's official web portal to all federal, state and local government web resources and services.